Location: *
(45.9500°N, 9.0833°E)
Time: 00:31:19
(UTC+00:00)

Vanguard 2 Rocket - Pass Details

Date: 17 June 2021
Orbit: 555 x 3325 km, 32.9° (Epoch: 03 August)

Event Time Altitude Azimuth Distance (km) Brightness Sun altitude
Rises 19:35:13 0° 237° (WSW) 7,304 11.8 -3.4°
Reaches altitude 10° 19:40:39 10° 232° (SW) 6,202 11.3 -4.1°
Maximum altitude 19:57:46 44° 169° (S) 3,328 9.4 -6.3°
Drops below altitude 10° 20:09:18 10° 103° (ESE) 4,268 9.8 -7.7°
Sets 20:12:15 0° 97° (E) 4,934 10.2 -8.1°
